Content
SEND FEEDBACK

Daily
Averages
Monthly
Summary
United States of America

HOT SPRINGS, SOUTH DAKOTA


Home > North America > United States > South Dakota
Elevation: 3148 feet     Latitude: 43 22N     Longitude: 103 23W

WEATHER
 
SELECT A DAY
Number of Records: 126,571;   Date Range: 1/1/95 - 11/25/14
 
SHARE

PRINT THIS DATA

[ ← Previous Day ]
WEATHER ALMANAC - JANUARY 31, 2013
[ Next Day → ]
[ °C ]   °F
Weather ElementAverageHighLow
Temperature13.4 °F25 °F (11:53 pm) (11:00 am)
Dewpoint4.3 °F19.9 °F (11:53 pm)-5.1 °F (7:53 am)
Humidity66.3 %84 % (6:53 pm)53 % (1:53 pm)
Barometer28.85 in30.22 in (6:53 pm) (7:00 pm)
Wind Speed9.6 mph18.4 mph (12:53 pm)
Wind Gust27.6 mph (12:53 pm)
Weather ElementAverage
Visibility9.9 mi
Wind DirectionSSW (189.2 °)

Weather ElementTotal
Precipitation---
Heating Degree Days52.5 (Base 65)
Averaged from 24 records on January 31, 2013
WEATHER CONDITIONS BREAKOUT
WIND DIRECTION BREAKOUT
WEATHER BY HOUR - JANUARY 31, 2013
[ °C ]   °F
Local TimeTemperatureDewpointHumidityBarometerVisibilityWind DirectionWind SpeedGust SpeedPrecipitationEventsConditions
1:53 AM14.0 °F3.0 °F62 %29.91 in10.0 miVariable6.9 mph23.0 mphClear
2:53 AM12.9 °F1.9 °F62 %29.92 in10.0 miNW (320°)9.2 mph19.6 mphMostly Cloudy
3:53 AM12.0 °F1.0 °F61 %29.94 in10.0 miVariable5.8 mphScattered Clouds
4:53 AM10.9 °F0.0 °F61 %29.98 in10.0 miNW (310°)11.5 mph17.3 mphOvercast
5:53 AM9.0 °F-2.0 °F61 %30.03 in10.0 miVariable6.9 mphOvercast
6:53 AM7.0 °F-4.0 °F61 %30.07 in10.0 miNNW (340°)9.2 mph26.5 mphMostly Cloudy
7:53 AM7.0 °F-5.1 °F58 %30.11 in10.0 miNorth (350°)8.1 mphMostly Cloudy
8:53 AM8.1 °F-4.0 °F58 %30.14 in10.0 miVariable4.6 mphOvercast
9:53 AM10.0 °F-0.9 °F61 %30.17 in8.0 miNNE (20°)8.1 mph0.00 inSnowLight Snow
10:53 AM12.9 °F1.0 °F59 %30.18 in10.0 miNorth (350°)9.2 mph0.00 inOvercast
11:00 AM0.0 °F0.0 °FNorth
11:53 AM16.0 °F1.9 °F54 %30.14 in10.0 miVariable4.6 mphOvercast
12:53 PM18.0 °F3.9 °F54 %30.12 in10.0 miWest (280°)18.4 mph27.6 mphOvercast
1:53 PM21.0 °F6.1 °F53 %30.11 in10.0 miVariable6.9 mph27.6 mphOvercast
2:53 PM19.9 °F9.0 °F62 %30.12 in9.0 miWest (280°)17.3 mph24.2 mph0.00 inSnowLight Snow
3:53 PM17.1 °F6.1 °F62 %30.14 in10.0 miWest (260°)8.1 mphOvercast
4:53 PM10.0 °F3.0 °F73 %30.18 in10.0 miWSW (240°)10.4 mphMostly Cloudy
5:53 PM10.0 °F5.0 °F80 %30.20 in10.0 miSW (230°)4.6 mphMostly Cloudy
6:53 PM10.0 °F6.1 °F84 %30.22 in10.0 miSW (220°)6.9 mphClear
7:53 PM14.0 °F9.0 °F80 %30.21 in10.0 miWSW (240°)6.9 mphPartly Cloudy
8:53 PM16.0 °F12.0 °F84 %30.20 in10.0 miWest (270°)12.7 mph21.9 mphClear
9:53 PM21.0 °F14.0 °F74 %30.16 in10.0 miWest (270°)17.3 mph26.5 mphMostly Cloudy
10:53 PM19.9 °F15.1 °F81 %30.14 in10.0 miWest (280°)16.1 mph23.0 mphMostly Cloudy
11:53 PM25.0 °F19.9 °F81 %30.10 in10.0 miWest (280°)10.4 mphOvercast
Hourly data recorded from KCUT, located miles away from Hot Springs, South Dakota







STORIES FROM OUR PARTNERS